{"data":{"norad_id":54841,"intl_designator":"2022-177X","name":"STARLINK-4659","alt_names":[],"object_type":"PAYLOAD","status":"ACTIVE","operator":null,"country":"US","launch_date":"2022-12-28","launch_site_code":"AFETR","launch_vehicle":null,"mission":null,"orbit_class":"UNKNOWN","rcs_meters":null,"size_class":null,"mass_kg":null,"dimensions":null,"purposes":["comms"],"wikipedia_slug":null,"has_3d_model":false,"image_url":null,"decayed_at":null,"tle_current":{"epoch":"2026-09-19T21:48:41.107104Z","epoch_age_seconds":143761,"freshness":"FRESH","line1":"1 54841U 22177X   26262.90880911 -.00000838  00000+0 -20927-4 0  9999","line2":"2 54841  43.0034 116.0660 0001289 265.0356  95.0349 15.27574568206665","mean_motion":15.27574568,"eccentricity":0.0001289,"inclination_deg":43.0034,"raan_deg":116.066,"arg_perigee_deg":265.0356,"mean_anomaly_deg":95.0349,"bstar":-2.0927e-5,"rev_number":20666,"period_min":94.267083922806,"perigee_km":482.18095246561,"apogee_km":483.94977043439,"semimajor_km":6861.20236145,"source":"CELESTRAK","updated_at":"2026-09-21T09:00:33.135716Z"}}}